FENGYUN 1C DEB, 30119

Orbit data source: Space-Track

FENGYUN 1C DEB, 30119 is space debris in SSO originally from a launch on Mon, 10 May 1999 UTC launched from the Taiyaun Space Center, China (TSC). Fengyun 1C debris stems from the Chinese weather satellite Fengyun-1C, which was intentionally destroyed by a Chinese anti-satellite missile in 2007. This event dramatically increased the amount of space debris, with thousands of trackable fragments posing hazards to satellites and human spaceflight. The Fengyun 1C debris cloud has become a focal point in discussions about space sustainability and the need for international regulations to prevent the creation of new debris.

Loading next visibility...
Identifier
30119, 1999-025RY
Orbit
SSO
Country
Flag of CNCN / PRC
Related business
Manufacturer
Unknown
Mission
Spacecraft
Bus & Motor
Unknown
Mass
Unknown
Launch date (UTC)
1999-05-10 (27 years ago)
Launch vehicle
Unknown
Launch site
Taiyaun Space Center, China (TSC)
Object type
Payload
Rocket body
Debris
Shape & HBR
Unknown shape, 0.1 m
Radar Cross Section
Small (<0.1 m²)

Expand to show TLE details & history
Last TLE update: 9 hours ago

TLE from 9 hours ago
0 FENGYUN 1C DEB
1 30119U 99025RY  26123.93181006  .00002369  00000-0  97767-3 0  9990
2 30119  97.9320 108.7764 0127946 231.4651 158.4313 14.23255119992020
Epoch: 2026-05-03T22:21Z
TLE epoch observation values (Epoch: 2026-05-03T22:21:48.389Z)
Latitude
30.15702°
Longitude
-93.12249°
Altitude
903.923 km
Speed
7.359 km/s
True Right ascension
06h 56m 37s
True Declination
30° 00' 39"
Sunlit
Object was in daylight at epoch
Visualization orbit readout
Latitude
Unknown
Longitude
Unknown
Altitude
Unknown
Speed
Unknown
Apparent Right ascension
Unknown
Apparent Declination
Unknown
Sunlit
N/A
Visualization observer readout
Local Sidereal Time
15:04:45
Azimuth
Unknown
Elevation
Unknown
Doppler factor
Unknown
Orbital elements
Apogee altitude
903.471 km
Perigee altitude
719.495 km
Semi-major axis
7,189.62 km
Eccentricity
0.01279
Inclination
97.932°
RAAN
108.7764°
Arg. of periapsis
231.4651°
True anomaly
158.96237°
Mean anomaly
158.4313°
Eccentric anomaly
158.69762°
Mean motion
3.56028 °/min
Orbital period
101.12 mins
BSTAR
0.00097767
Loading maneuver chart data...
Computing Atmospheric mass density...
Loading historical data...
Loading historical data...
Loading historical data...
Loading historical data...
Loading historical data...
Loading historical data...
Loading historical data...

Documentation

Showing up to 5 results
|